Location: Poughquag
(41.6090°N, 73.6820°W)
Time: 17:03:27
(UTC-04:00)

Vanguard 3 - Visible Passes

Search period start: 15 July 2024 00:00
Search period end: 25 July 2024 00:00
Orbit: 508 x 3231 km, 33.4° (Epoch: 15 July)

Date Brightness Start Highest point End Pass type
(mag) Time Alt. Az. Time Alt. Az. Time Alt. Az.
15 Jul 10.0 01:33:42 35° S 01:38:33 40° SE 01:55:50 10° E visible
15 Jul 10.1 03:37:49 17° WSW 03:53:16 62° SSE 04:11:35 10° E visible
16 Jul 10.3 00:18:59 27° SE 00:19:03 27° SE 00:33:08 10° E visible
16 Jul 10.0 02:23:06 32° SSW 02:32:13 54° SSE 02:50:52 10° E visible
16 Jul 10.1 04:29:15 10° WSW 04:47:52 66° S 05:05:39 10° ESE visible
16 Jul 10.8 23:04:14 13° ESE 23:04:14 13° ESE 23:07:26 10° ESE visible
17 Jul 9.9 01:08:21 38° S 01:11:57 41° SE 01:29:13 10° E visible
17 Jul 10.0 03:12:28 19° WSW 03:26:28 63° SSE 03:45:24 10° E visible
17 Jul 10.2 23:53:33 27° SE 23:53:33 27° SE 00:06:21 10° E visible
18 Jul 9.9 01:57:39 34° SSW 02:05:32 54° SSE 02:24:20 10° E visible
18 Jul 10.1 04:03:11 10° WSW 04:21:03 67° S 04:39:36 10° ESE visible
18 Jul 10.8 22:38:42 12° ESE 22:38:42 12° ESE 22:40:42 10° ESE visible
19 Jul 9.7 00:42:48 39° SSE 00:45:26 41° SSE 01:02:25 10° E visible
19 Jul 9.9 02:46:55 21° WSW 02:59:41 63° S 03:19:00 10° E visible
19 Jul 10.2 04:57:13 10° W 05:15:39 63° SSW 05:33:22 10° ESE visible
19 Jul 10.1 23:27:54 26° SE 23:27:54 26° SE 23:39:26 10° E visible
20 Jul 9.8 01:32:00 36° SSW 01:38:54 55° SSE 01:57:36 10° E visible
20 Jul 10.0 03:37:17 10° WSW 03:54:12 66° S 04:13:20 10° ESE visible
20 Jul 10.7 22:12:56 11° ESE 22:12:56 11° ESE 22:13:51 10° ESE visible
21 Jul 9.6 00:17:00 40° SSE 00:19:03 41° SSE 00:35:27 10° E visible
21 Jul 9.8 02:21:06 21° WSW 02:32:58 63° S 02:52:23 10° E visible
21 Jul 10.1 04:31:09 10° W 04:48:46 62° SSW 05:07:13 10° ESE visible
21 Jul 10.0 23:01:54 26° SE 23:01:54 26° SE 23:12:25 10° E visible
22 Jul 9.6 01:05:58 36° SSW 01:12:24 55° SSE 01:30:42 10° E visible
22 Jul 9.9 03:11:32 10° WSW 03:27:24 66° S 03:46:51 10° ESE visible
22 Jul 10.4 21:46:35 10° ESE 21:46:35 10° ESE 21:46:56 10° ESE visible
22 Jul 9.4 23:50:38 39° SSE 23:52:46 41° SSE 00:08:23 10° E visible
23 Jul 9.7 01:54:40 18° WSW 02:06:20 63° S 02:25:35 10° E visible
23 Jul 10.0 04:05:13 10° W 04:21:53 61° SSW 04:40:48 10° ESE visible
23 Jul 9.7 22:26:27 10° S 22:34:45 26° SE 22:45:23 10° E visible
24 Jul 9.4 00:38:42 28° SW 00:46:00 55° SSE 01:03:39 10° E visible
24 Jul 9.8 02:45:54 10° W 03:00:38 65° S 03:20:08 10° ESE visible
24 Jul 10.2 04:59:14 10° W 05:16:08 51° SSW 05:34:01 10° SE visible
24 Jul 9.9 21:13:18 10° SE 21:16:23 12° SE 21:19:57 10° ESE visible
24 Jul 9.3 23:17:26 10° SW 23:26:37 41° SSE 23:41:16 10° E visible
